Location: Killam
(52.7910°N, 111.8608°W)
Time: 11:27:55
(UTC+00:00)

Transit 2A - All Passes

Search period start: 16 February 2026 00:00
Search period end: 26 February 2026 00:00
Orbit: 589 x 955 km, 66.7° (Epoch: 16 February)

Date Brightness Start Highest point End Pass type
(mag) Time Alt. Az. Time Alt. Az. Time Alt. Az.
16 Feb - 01:13:31 10° NW 01:18:23 22° N 01:23:07 10° NE visible
16 Feb - 02:57:41 10° NW 03:03:19 33° NNE 03:08:38 10° E visible
16 Feb - 04:40:59 10° NW 04:47:11 89° SW 04:52:52 10° SE visible
16 Feb - 06:25:05 10° WNW 06:29:28 21° WSW 06:33:36 10° SSW visible
16 Feb - 19:25:26 10° SSE 19:30:17 24° ESE 19:35:13 10° ENE daylight
16 Feb - 21:06:29 10° SW 21:12:44 88° NW 21:19:07 10° NE daylight
16 Feb - 22:50:57 10° W 22:56:39 34° NNW 23:02:19 10° NE daylight
17 Feb - 00:36:41 10° NW 00:41:35 23° N 00:46:20 10° NE daylight
17 Feb - 02:21:13 10° NW 02:26:38 29° NNE 02:31:45 10° E visible
17 Feb - 04:04:34 10° NW 04:10:47 71° NE 04:16:28 10° SE visible
17 Feb - 05:48:18 10° NW 05:53:25 30° WSW 05:58:10 10° S visible
17 Feb - 18:50:18 10° SE 18:54:14 18° ESE 18:58:15 10° ENE daylight
17 Feb - 20:30:12 10° SSW 20:36:23 72° SE 20:42:42 10° NE daylight
17 Feb - 22:14:05 10° WSW 22:20:00 40° NNW 22:25:55 10° NE daylight
17 Feb - 23:59:48 10° WNW 00:04:46 23° N 00:09:38 10° NE daylight
18 Feb - 01:44:42 10° NW 01:49:54 26° NNE 01:54:50 10° ENE visible
18 Feb - 03:28:11 10° NW 03:34:18 56° NE 03:39:56 10° ESE visible
18 Feb - 05:11:40 10° NW 05:17:17 40° WSW 05:22:28 10° S visible
18 Feb - 18:15:55 10° ESE 18:18:17 12° E 18:20:40 10° ENE daylight
18 Feb - 19:54:04 10° SSW 20:00:06 54° ESE 20:06:15 10° NE daylight
18 Feb - 21:37:20 10° WSW 21:43:25 48° NW 21:49:31 10° NE daylight
18 Feb - 23:22:51 10° WNW 23:27:59 25° NNW 23:33:01 10° NE daylight
19 Feb - 01:08:06 10° NW 01:13:07 24° NNE 01:17:56 10° ENE daylight
19 Feb - 02:51:48 10° NW 02:57:45 45° NE 03:03:16 10° ESE visible
19 Feb - 04:35:08 10° NW 04:41:05 55° WSW 04:46:31 10° SSE visible
19 Feb - 06:21:04 10° W 06:22:46 11° W 06:24:28 10° WSW visible
19 Feb - 19:18:08 10° S 19:23:53 41° ESE 19:29:45 10° NE daylight
19 Feb - 21:00:41 10° WSW 21:06:53 60° NW 21:13:09 10° NE daylight
19 Feb - 22:45:54 10° WNW 22:51:14 27° NNW 22:56:28 10° NE daylight
20 Feb - 00:31:25 10° NW 00:36:19 23° N 00:41:02 10° ENE daylight
20 Feb - 02:15:23 10° NW 02:21:09 37° NNE 02:26:31 10° E visible
20 Feb - 03:58:41 10° NW 04:04:48 74° SW 04:10:23 10° SSE visible
20 Feb - 05:43:15 10° WNW 05:46:50 17° WSW 05:50:15 10° SW visible
20 Feb - 18:42:26 10° S 18:47:43 30° ESE 18:53:07 10° NE daylight
20 Feb - 20:24:08 10° SW 20:30:25 76° NW 20:36:46 10° NE daylight
20 Feb - 22:08:57 10° W 22:14:30 31° NNW 22:20:00 10° NE daylight
20 Feb - 23:54:40 10° NW 23:59:31 22° N 00:04:13 10° NE daylight
21 Feb - 01:38:57 10° NW 01:44:29 32° NNE 01:49:41 10° E visible
21 Feb - 03:22:15 10° NW 03:28:27 85° NE 03:34:04 10° SE visible
21 Feb - 05:06:14 10° WNW 05:10:50 23° WSW 05:15:07 10° SSW visible
21 Feb - 18:07:01 10° SSE 18:11:38 22° ESE 18:16:21 10° ENE daylight
21 Feb - 19:47:44 10° SW 19:54:01 85° SE 20:00:23 10° NE daylight
21 Feb - 21:32:03 10° W 21:37:49 36° NNW 21:43:33 10° NE daylight
21 Feb - 23:17:49 10° NW 23:22:42 23° N 23:27:27 10° NE daylight
22 Feb - 01:02:28 10° NW 01:07:46 28° NNE 01:12:48 10° ENE daylight
22 Feb - 02:45:52 10° NW 02:52:01 66° NE 02:57:38 10° SE visible
22 Feb - 04:29:29 10° NW 04:34:45 32° WSW 04:39:36 10° S visible
22 Feb - 17:32:02 10° SE 17:35:37 16° ESE 17:39:15 10° ENE daylight
22 Feb - 19:11:30 10° SSW 19:17:41 66° ESE 19:23:56 10° NE daylight
22 Feb - 20:55:13 10° WSW 21:01:12 42° NW 21:07:09 10° NE daylight
22 Feb - 22:40:54 10° WNW 22:45:54 24° N 22:50:47 10° NE daylight
23 Feb - 00:25:55 10° NW 00:31:01 25° NNE 00:35:53 10° ENE daylight
23 Feb - 02:09:28 10° NW 02:15:30 52° NE 02:21:03 10° ESE visible
23 Feb - 03:52:54 10° NW 03:58:36 44° WSW 04:03:48 10° S visible
23 Feb - 16:58:12 10° ESE 16:59:40 11° E 17:01:09 10° E daylight
23 Feb - 18:35:26 10° SSW 18:41:24 50° ESE 18:47:28 10° NE daylight
23 Feb - 20:18:29 10° WSW 20:24:38 52° NW 20:30:46 10° NE daylight
23 Feb - 22:03:56 10° WNW 22:09:06 25° NNW 22:14:10 10° NE daylight
23 Feb - 23:49:18 10° NW 23:54:14 23° N 23:58:58 10° ENE daylight
24 Feb - 01:33:04 10° NW 01:38:56 42° NE 01:44:22 10° ESE visible
24 Feb - 03:16:24 10° NW 03:22:22 61° WSW 03:27:47 10° SSE visible
24 Feb - 05:01:45 10° WNW 05:04:09 13° W 05:06:28 10° SW visible
24 Feb - 17:59:33 10° S 18:05:12 37° ESE 18:10:56 10° NE daylight
24 Feb - 19:41:51 10° SW 19:48:06 65° NW 19:54:23 10° NE daylight
24 Feb - 21:26:59 10° W 21:32:22 28° NNW 21:37:40 10° NE daylight
24 Feb - 23:12:36 10° NW 23:17:26 22° N 23:22:06 10° NE daylight
25 Feb - 00:56:39 10° NW 01:02:19 35° NNE 01:07:35 10° E daylight
25 Feb - 02:39:57 10° NW 02:46:03 81° SW 02:51:36 10° SSE visible
25 Feb - 04:24:18 10° WNW 04:28:11 18° WSW 04:31:51 10° SSW visible
25 Feb - 17:23:55 10° SSE 17:29:03 28° ESE 17:34:15 10° NE daylight
25 Feb - 19:05:21 10° SW 19:11:39 81° NW 19:18:00 10° NE daylight
25 Feb - 20:50:02 10° W 20:55:40 32° NNW 21:01:11 10° NE daylight
25 Feb - 22:35:47 10° NW 22:40:37 22° N 22:45:16 10° NE daylight
